| time (UTC) | temp C | wind direction | speed KPH | gust KPH | rain 1hr cm | rain 24hr cm | rain mn cm | humidity % | barometer mb |
| 20260506091422 | 5 | 289 | 0.0 | 0.0 | 0.00 | 3.53 | 0.74 | 93 | 1010.2 |
| 20260506090522 | 5 | 285 | 0.0 | 1.6 | 0.00 | 3.56 | 0.74 | 92 | 1010.3 |
| 20260506085623 | 5 | 242 | 0.0 | 0.0 | 0.03 | 3.56 | 0.74 | 92 | 1009.8 |
| 20260506084723 | 5 | 242 | 0.0 | 0.0 | 0.03 | 3.58 | 0.74 | 92 | 1009.7 |
| 20260506083822 | 5 | 241 | 0.0 | 0.0 | 0.03 | 3.63 | 0.74 | 92 | 1009.3 |
| 20260506082921 | 5 | 241 | 0.0 | 0.0 | 0.05 | 3.76 | 0.74 | 92 | 1009.8 |
| 20260506082022 | 5 | 241 | 0.0 | 0.0 | 0.05 | 3.86 | 0.74 | 92 | 1009.8 |
| 20260506081122 | 5 | 242 | 0.0 | 1.6 | 0.08 | 3.94 | 0.74 | 92 | 1009.3 |
| 20260506080221 | 5 | 249 | 0.0 | 1.6 | 0.08 | 4.04 | 0.74 | 92 | 1008.9 |
| 20260506073522 | 5 | 257 | 0.0 | 0.0 | 0.05 | 4.22 | 0.71 | 92 | 1009.9 |
| 20260506072622 | 5 | 256 | 0.0 | 1.6 | 0.03 | 4.27 | 0.69 | 92 | 1009.9 |
| 20260506071723 | 5 | 207 | 0.0 | 1.6 | 0.03 | 4.32 | 0.69 | 92 | 1009.6 |
| 20260506070835 | 6 | 306 | 0.0 | 0.0 | 0.03 | 4.34 | 0.66 | 92 | 1009.6 |
| 20260506062322 | 6 | 204 | 0.0 | 0.0 | 0.18 | 4.47 | 0.66 | 92 | 1009.5 |
| 20260506061421 | 6 | 286 | 0.0 | 1.6 | 0.20 | 4.47 | 0.66 | 92 | 1009.7 |
| 20260506060521 | 6 | 248 | 0.0 | 1.6 | 0.20 | 4.45 | 0.64 | 92 | 1009.7 |
| 20260506051122 | 7 | 339 | 0.0 | 1.6 | 0.36 | 4.27 | 0.46 | 92 | 1008.6 |
| 20260506050221 | 7 | 241 | 0.0 | 3.2 | 0.43 | 4.24 | 0.43 | 92 | 1008.5 |
| 20260506044422 | 7 | 286 | 1.6 | 4.8 | 0.00 | 4.17 | 0.36 | 92 | 1008.8 |
| 20260506043522 | 7 | 317 | 1.6 | 4.8 | 0.00 | 4.09 | 0.28 | 92 | 1009.7 |
| 20260506042621 | 7 | 305 | 0.0 | 0.0 | 0.00 | 4.01 | 0.20 | 92 | 1009.4 |
| 20260506041722 | 7 | 307 | 0.0 | 0.0 | 0.00 | 3.96 | 0.15 | 92 | 1009.2 |
| 20260506040822 | 7 | 310 | 0.0 | 1.6 | 0.00 | 3.89 | 0.08 | 92 | 1009.1 |
| 20260506035922 | 7 | 304 | 1.6 | 3.2 | 0.00 | 3.81 | 0.00 | 92 | 1008.9 |
| 20260506034122 | 7 | 97 | 3.2 | 4.8 | 0.53 | 3.81 | 3.81 | 92 | 1008.0 |
| 20260506033222 | 7 | 132 | 1.6 | 3.2 | 0.53 | 3.78 | 3.78 | 92 | 1008.3 |
| 20260506032321 | 7 | 144 | 1.6 | 3.2 | 0.43 | 3.68 | 3.68 | 92 | 1008.8 |
| 20260506031422 | 7 | 304 | 1.6 | 1.6 | 0.28 | 3.53 | 3.53 | 92 | 1009.2 |
| 20260506030521 | 8 | 290 | 1.6 | 3.2 | 0.10 | 3.33 | 3.33 | 92 | 1009.2 |
| 20260506025621 | 8 | 260 | 1.6 | 9.7 | 0.05 | 3.28 | 3.28 | 92 | 1008.3 |
| 20260506024723 | 8 | 241 | 0.0 | 1.6 | 0.08 | 3.28 | 3.28 | 92 | 1008.2 |
| 20260506023821 | 8 | 120 | 1.6 | 4.8 | 0.08 | 3.25 | 3.25 | 92 | 1008.1 |
| 20260506022924 | 8 | 278 | 1.6 | 1.6 | 0.10 | 3.25 | 3.25 | 92 | 1008.2 |
| 20260506022023 | 8 | 163 | 0.0 | 1.6 | 0.18 | 3.25 | 3.25 | 92 | 1008.4 |
| 20260506021122 | 8 | 269 | 1.6 | 3.2 | 0.23 | 3.25 | 3.25 | 92 | 1008.5 |
| 20260506020221 | 8 | 146 | 1.6 | 3.2 | 0.25 | 3.23 | 3.23 | 92 | 1008.7 |
| 20260506015322 | 8 | 240 | 0.0 | 1.6 | 0.23 | 3.20 | 3.20 | 92 | 1008.8 |
| 20260506014421 | 8 | 105 | 0.0 | 1.6 | 0.28 | 3.20 | 3.20 | 92 | 1008.8 |
| 20260506013522 | 8 | 146 | 0.0 | 3.2 | 0.33 | 3.17 | 3.17 | 92 | 1008.5 |
| 20260506012621 | 8 | 290 | 0.0 | 1.6 | 0.36 | 3.12 | 3.12 | 92 | 1008.8 |
| 20260506011721 | 8 | 253 | 0.0 | 0.0 | 0.36 | 3.05 | 3.05 | 92 | 1008.5 |
| 20260506010821 | 8 | 234 | 0.0 | 3.2 | 0.46 | 3.00 | 3.00 | 92 | 1008.4 |
| 20260506005921 | 8 | 178 | 0.0 | 1.6 | 0.53 | 2.97 | 2.97 | 92 | 1008.1 |
| 20260506005022 | 8 | 231 | 0.0 | 0.0 | 0.64 | 2.97 | 2.97 | 91 | 1008.0 |
| 20260506004125 | 8 | 130 | 0.0 | 1.6 | 0.66 | 2.90 | 2.90 | 91 | 1008.3 |
| 20260506003221 | 8 | 311 | 0.0 | 1.6 | 0.69 | 2.84 | 2.84 | 91 | 1008.6 |
| 20260506002322 | 8 | 299 | 1.6 | 1.6 | 0.66 | 2.77 | 2.77 | 91 | 1008.6 |
| 20260506001422 | 9 | 317 | 1.6 | 3.2 | 0.58 | 2.64 | 2.64 | 91 | 1008.4 |
| 20260506000522 | 9 | 306 | 0.0 | 3.2 | 0.53 | 2.51 | 2.51 | 91 | 1008.4 |
| 20260505233822 | 9 | 312 | 1.6 | 4.8 | 0.38 | 2.24 | 2.24 | 91 | 1007.7 |
| 20260505232921 | 9 | 304 | 1.6 | 4.8 | 0.33 | 2.13 | 2.13 | 91 | 1007.8 |
| 20260505230223 | 10 | 307 | 3.2 | 4.8 | 0.38 | 1.98 | 1.98 | 90 | 1007.4 |
| 20260505225322 | 10 | 310 | 3.2 | 4.8 | 0.38 | 1.96 | 1.96 | 90 | 1007.4 |
| 20260505224422 | 11 | 313 | 3.2 | 8.0 | 0.33 | 1.88 | 1.88 | 89 | 1007.6 |
| 20260505222621 | 14 | 306 | 11.3 | 14.5 | 0.23 | 1.75 | 1.75 | 88 | 1007.3 |
| 20260505220821 | 14 | 188 | 0.0 | 4.8 | 0.13 | 1.65 | 1.65 | 90 | 1007.2 |
| 20260505215921 | 14 | 230 | 0.0 | 3.2 | 0.08 | 1.60 | 1.60 | 90 | 1007.2 |
| 20260505214123 | 14 | 172 | 3.2 | 4.8 | 0.03 | 1.55 | 1.55 | 90 | 1007.0 |
| 20260505213223 | 14 | 211 | 1.6 | 4.8 | 0.00 | 1.52 | 1.52 | 90 | 1007.1 |
| 20260505212322 | 14 | 203 | 3.2 | 8.0 | 0.00 | 1.52 | 1.52 | 90 | 1007.1 |
| 20260505211423 | 14 | 174 | 3.2 | 9.7 | 0.00 | 1.52 | 1.52 | 90 | 1007.1 |
| 20260505205623 | 14 | 204 | 4.8 | 4.8 | 0.03 | 1.52 | 1.52 | 89 | 1007.1 |
| 20260505204722 | 14 | 198 | 8.0 | 8.0 | 0.08 | 1.52 | 1.52 | 89 | 1007.2 |
| 20260505204506 | 14 | 157 | 4.8 | 4.8 | 0.13 | 1.52 | 1.52 | 89 | 1007.1 |
| 20260505203825 | 14 | 157 | 4.8 | 4.8 | 0.13 | 1.52 | 1.52 | 89 | 1007.1 |
| 20260505202921 | 14 | 152 | 4.8 | 9.7 | 0.15 | 1.52 | 1.52 | 89 | 1007.1 |
| 20260505202022 | 14 | 185 | 3.2 | 4.8 | 0.18 | 1.52 | 1.52 | 89 | 1007.2 |
| 20260505201121 | 14 | 163 | 4.8 | 9.7 | 0.20 | 1.52 | 1.52 | 89 | 1007.3 |
| 20260505200223 | 15 | 123 | 8.0 | 11.3 | 0.28 | 1.52 | 1.52 | 89 | 1007.3 |
| 20260505195322 | 15 | 135 | 4.8 | 11.3 | 0.28 | 1.47 | 1.47 | 88 | 1007.5 |
| 20260505194423 | 15 | 183 | 8.0 | 11.3 | 0.28 | 1.42 | 1.42 | 88 | 1007.6 |
| 20260505193521 | 15 | 165 | 3.2 | 4.8 | 0.28 | 1.37 | 1.37 | 88 | 1007.7 |
| 20260505192622 | 15 | 188 | 4.8 | 4.8 | 0.30 | 1.37 | 1.37 | 88 | 1007.8 |
| 20260505190853 | 15 | 210 | 8.0 | 12.9 | 0.23 | 1.30 | 1.30 | 86 | 1008.0 |
| 20260505190821 | 15 | 210 | 8.0 | 12.9 | 0.23 | 1.30 | 1.30 | 86 | 1008.0 |
| 20260505185921 | 15 | 237 | 4.8 | 8.0 | 0.15 | 1.22 | 1.22 | 86 | 1008.0 |
| 20260505185021 | 15 | 198 | 8.0 | 9.7 | 0.15 | 1.19 | 1.19 | 84 | 1008.0 |
| 20260505182320 | 16 | 210 | 3.2 | 4.8 | 0.03 | 1.07 | 1.07 | 83 | 1007.9 |
| 20260505181421 | 16 | 237 | 1.6 | 8.0 | 0.03 | 1.07 | 1.07 | 83 | 1008.0 |
| 20260505180521 | 16 | 257 | 3.2 | 4.8 | 0.03 | 1.07 | 1.07 | 82 | 1007.9 |
| 20260505175622 | 16 | 246 | 3.2 | 4.8 | 0.03 | 1.07 | 1.07 | 80 | 1007.9 |
| 20260505174724 | 16 | 207 | 4.8 | 9.7 | 0.00 | 1.04 | 1.04 | 78 | 1008.0 |
| 20260505173821 | 17 | 209 | 8.0 | 20.9 | 0.00 | 1.04 | 1.04 | 77 | 1008.1 |
| 20260505172921 | 17 | 240 | 8.0 | 12.9 | 0.00 | 1.04 | 1.04 | 76 | 1008.0 |
| 20260505172021 | 17 | 191 | 9.7 | 16.1 | 0.00 | 1.04 | 1.04 | 75 | 1007.9 |
| 20260505171123 | 17 | 210 | 8.0 | 14.5 | 0.00 | 1.04 | 1.04 | 76 | 1008.1 |
| 20260505170221 | 17 | 198 | 11.3 | 14.5 | 0.00 | 1.04 | 1.04 | 75 | 1008.1 |
| 20260505165321 | 17 | 199 | 11.3 | 16.1 | 0.00 | 1.04 | 1.04 | 76 | 1008.0 |
| 20260505164421 | 17 | 219 | 4.8 | 9.7 | 0.00 | 1.04 | 1.04 | 76 | 1007.9 |
| 20260505163523 | 17 | 258 | 8.0 | 14.5 | 0.00 | 1.04 | 1.04 | 75 | 1008.1 |
| 20260505162621 | 17 | 246 | 4.8 | 9.7 | 0.00 | 1.04 | 1.04 | 76 | 1008.1 |
| 20260505160821 | 17 | 264 | 4.8 | 8.0 | 0.00 | 1.04 | 1.04 | 76 | 1008.4 |
| 20260505153222 | 17 | 246 | 8.0 | 11.3 | 0.00 | 1.04 | 1.04 | 77 | 1008.5 |
| 20260505152321 | 17 | 261 | 8.0 | 9.7 | 0.00 | 1.04 | 1.04 | 76 | 1008.3 |
| 20260505151421 | 17 | 243 | 11.3 | 16.1 | 0.00 | 1.04 | 1.04 | 77 | 1008.1 |
| 20260505150523 | 17 | 237 | 12.9 | 19.3 | 0.00 | 1.04 | 1.04 | 77 | 1008.3 |
| 20260505140223 | 16 | 220 | 8.0 | 12.9 | 0.00 | 1.04 | 1.04 | 81 | 1007.9 |
| 20260505124121 | 13 | 203 | 11.3 | 20.9 | 0.00 | 1.04 | 1.04 | 87 | 1007.4 |
| 20260505123220 | 13 | 158 | 8.0 | 4.8 | 0.00 | 1.04 | 1.04 | 87 | 1007.2 |
| 20260505122322 | 13 | 178 | 3.2 | 4.8 | 0.00 | 1.04 | 1.04 | 87 | 1007.2 |
| 20260505121422 | 13 | 181 | 4.8 | 11.3 | 0.00 | 1.04 | 1.04 | 88 | 1007.0 |
| 20260505120521 | 12 | 170 | 8.0 | 9.7 | 0.00 | 1.04 | 1.04 | 89 | 1007.1 |
| 20260505115620 | 12 | 149 | 4.8 | 8.0 | 0.00 | 1.04 | 1.04 | 89 | 1007.2 |
| 20260505114721 | 12 | 150 | 1.6 | 4.8 | 0.00 | 1.04 | 1.04 | 89 | 1007.2 |
| 20260505113820 | 12 | 213 | 3.2 | 4.8 | 0.00 | 1.04 | 1.04 | 89 | 1007.3 |
| 20260505112920 | 12 | 200 | 3.2 | 4.8 | 0.00 | 1.04 | 1.04 | 88 | 1007.2 |
| 20260505112026 | 12 | 172 | 3.2 | 4.8 | 0.00 | 1.04 | 1.04 | 88 | 1007.1 |
| 20260505111124 | 12 | 228 | 1.6 | 4.8 | 0.00 | 1.04 | 1.04 | 88 | 1007.0 |
| 20260505110223 | 12 | 139 | 3.2 | 9.7 | 0.00 | 1.04 | 1.04 | 88 | 1006.6 |
| 20260505100857 | 12 | 141 | 11.3 | 19.3 | 0.05 | 1.04 | 1.04 | 90 | 1005.4 |
| 20260505100821 | 12 | 141 | 11.3 | 19.3 | 0.05 | 1.04 | 1.04 | 90 | 1005.4 |
| 20260505095924 | 12 | 151 | 12.9 | 19.3 | 0.05 | 1.04 | 1.04 | 90 | 1005.7 |
| 20260505095021 | 12 | 118 | 12.9 | 20.9 | 0.03 | 1.02 | 1.02 | 90 | 1005.2 |
| 20260505094122 | 12 | 121 | 11.3 | 19.3 | 0.05 | 1.02 | 1.02 | 90 | 1006.1 |
| 20260505093222 | 12 | 139 | 9.7 | 11.3 | 0.10 | 1.02 | 1.02 | 90 | 1006.4 |